Regional Weather Roundup
Issued by NWS Goodland, KS

Home | Current Version | Previous Version | Text Only | Print | Product List | Glossary Off
Versions: 1 2 3 4 5 6 7 8 9 10 11 12 13 14 15 16 17 18 19 20 21 22 23 24 25 26 27 28 29 30 31 32 33 34 35 36 37 38 39 40 41 42 43 44 45 46 47 48 49 50

000
ASUS43 KGLD 010608
RWRGLD

GOODLAND FORECAST AREA HOURLY WEATHER ROUNDUP
NATIONAL WEATHER SERVICE GOODLAND KS
1200 AM MDT WED OCT 01 2014

...OFFICIAL OBSERVATIONS...

CITY           SKY/WX    TMP DP  RH WIND       PRES   REMARKS
GOODLAND KS    MOCLDY    54  47  77 W7        29.80S
HILL CITY KS   CLOUDY    65  63  93 NE3       29.73S FOG
IMPERIAL NEB   MOCLDY    57  46  66 W5        29.78R
MCCOOK NEB     CLOUDY    59  53  80 E5        29.75S
AKRON CO       PTCLDY    53  43  68 NW8       29.84S
BURLINGTON CO  MOCLDY    55  47  74 W6        29.82S
LIMON CO       PTCLDY    48  42  80 CALM      29.88S
$$

...UNOFFICIAL OBSERVATIONS...

CITY           SKY/WX    TMP DP  RH WIND       PRES   REMARKS
COLBY KS       CLEAR     57  54  88 SW3       29.77S
GOVE KS          N/A     52  32  46 MISG        N/A
NORTON KS      CLOUDY    63  61  94 SE6       29.73  FOG
SHARON SPRINGS   N/A     55  49  80 CALM        N/A
WAKEENEY KS      N/A     60  55  83 MISG        N/A
TRENTON NEB      N/A     59  32  36 E6          N/A
KIT CARSON CO    N/A     56  48  74 MISG        N/A
YUMA CO          N/A     54  47  76 CALM        N/A
$$


USA.gov is the U.S. government's official web portal to all federal, state and local government web resources and services.